星链-34195 (STARLINK-34195)

导读

STARLINK-34195是美国SpaceX公司星链卫星互联网星座中的一员,于2025年5月24日由猎鹰九号火箭从加利福尼亚发射升空,成功进入预定近地轨道。作为星链组网卫星,它承担着为全球偏远、基础设施薄弱地区提供高速低延迟宽带互联网服务的使命,助力星链完成全球连续网络覆盖的组网目标。

基本信息
目录编号:
64142
目录名称:
STARLINK-34195
国际标识:
2025-111V
轨道中心:
EARTH
卫星名称:
星链-34195
卫星全名:
星链-34195 (STARLINK-34195)
卫星状态:
在轨 (已飞行468 天)
发射日期:
2025-05-24 UTC
国别 :
美国 (US)
星等 :
--
轨道信息
数据来源 国际轨道数据
星历时间: 2026-09-04T02:53:03+0800
17小时前
查看轨道信息
半长轴: 6861.146km
偏心率: 0.000077
轨道倾角: 42.999°
近地点辐角 285.081°
升交点赤经 151.846°
平近点角 74.996°
近地点: 482.48km
远地点: 483.538km
周期: 94.266分钟
每日圈数: 15.275937
详细信息
固有亮度:
5
最大亮度:
2.5
卫星平台:
Starlink V1.0
覆盖范围:
全球
运营商:
太空探索技术公司
运营商所在国:
美国
制造商(研发单位):
太空探索技术公司
制造商所在国:
美国
使用方式:
暂无
卫星简介
Starlink 计划是 SpaceX 推出的全球卫星互联网项目,通过发射低轨道卫星,为全球尤其是偏远地区提供高速、低延迟的互联网服务。自 2019 年起,Starlink 已部署数千颗卫星,旨在缩小全球数字鸿沟,推动互联网普及。该项目还为军事、航空等行业提供通信支持,带来广泛经济效益。
2D轨道图
3D轨道图
轨道高度分析图
轨道倾角分析图
轨道综合分析图
查看轨道综合分析图
交会数据列表
事件ID 空间交会对象 最接近时刻(TCA) 交会距离 交会风险概率(CRP) 交会风险指数(CRI) 操作
CDM_260827-182405-549006-414222
2026-08-27T
18:24:07+0000
0.049 km
近距离
1.398746E-3 极高风险 0.98
CDM_260827-195805-549006-414222
2026-08-27T
19:58:16+0000
1.872 km
极远距离
2.278181E-6 低风险 0.42
CDM_260829-200004-308006-414222
LKW-2 (43080)
2026-08-29T
20:00:58+0000
2.515 km
极远距离
1.516473E-6 低风险 0.39
CDM_260905-181206-414206-453121
OBJECT D (64531)
2026-09-05T
18:12:52+0000
2.826 km
极远距离
1.374523E-6 低风险 0.38
CDM_260905-071306-414206-453121
OBJECT D (64531)
2026-09-05T
07:13:00+0000
2.839 km
极远距离
1.371659E-6 低风险 0.38
CDM_260905-084706-414206-453121
OBJECT D (64531)
2026-09-05T
08:47:16+0000
2.840 km
极远距离
1.370168E-6 低风险 0.38
CDM_260905-194706-414206-453121
OBJECT D (64531)
2026-09-05T
19:47:08+0000
2.876 km
极远距离
1.341643E-6 低风险 0.38
CDM_260905-135701-587406-414222
2026-09-05T
13:57:41+0000
2.575 km
极远距离
1.257763E-6 低风险 0.37